Location: LDNL
(36.4545°S, 141.6685°E)
Time: 10:58:47
(UTC+10:00)

Explorer 7 - Pass Details

Date: 18 August 2022
Orbit: 482 x 668 km, 50.3° (Epoch: 26 September)

Event Time Altitude Azimuth Distance (km) Brightness Sun altitude
Rises 17:52:10 0° 268° (W) 3,022 12.3 1.1°
Reaches altitude 10° 17:54:59 10° 253° (WSW) 2,110 10.9 0.5°
Maximum altitude 17:58:52 23° 201° (SSW) 1,416 9.0 -0.2°
Drops below altitude 10° 18:02:43 10° 148° (SSE) 2,079 9.3 -1.0°
Sets 18:05:28 0° 133° (SE) 2,967 10.0 -1.5°
